Previsão horária em Alkuzhinskie Borki

Hoje, 15 Junho, Terça-feira

Tempo Temperatura Precipitação Vento Pressão Humidade
00:00 +17°C° 0.2 mm 0 m/s 751 mmHg 91%
01:00 +19°C° 0 mm 1 m/s 751 mmHg 91%
02:00 +18°C° 0 mm 1 m/s 751 mmHg 92%
03:00 +18°C° 0 mm 1 m/s 751 mmHg 92%
04:00 +19°C° 0 mm 1 m/s 751 mmHg 92%
05:00 +19°C° 0 mm 1 m/s 751 mmHg 92%
06:00 +20°C° 0 mm 1 m/s 751 mmHg 91%
07:00 +20°C° 0.1 mm 2 m/s 751 mmHg 86%
08:00 +23°C° 0.1 mm 2 m/s 751 mmHg 80%
09:00 +24°C° 0.1 mm 2 m/s 751 mmHg 75%
10:00 +25°C° 0.2 mm 2 m/s 751 mmHg 70%
11:00 +26°C° 0.2 mm 2 m/s 751 mmHg 66%
12:00 +27°C° 0.2 mm 2 m/s 750 mmHg 62%
13:00 +26°C° 0.7 mm 2 m/s 750 mmHg 64%
14:00 +26°C° 0.7 mm 2 m/s 750 mmHg 67%
15:00 +26°C° 0.7 mm 2 m/s 749 mmHg 70%
16:00 +25°C° 0.9 mm 2 m/s 749 mmHg 75%
17:00 +24°C° 0.9 mm 2 m/s 749 mmHg 80%
18:00 +24°C° 0.9 mm 2 m/s 749 mmHg 85%
19:00 +21°C° 0.4 mm 2 m/s 749 mmHg 87%
20:00 +21°C° 0.4 mm 1 m/s 749 mmHg 89%
21:00 +20°C° 0.4 mm 1 m/s 749 mmHg 91%
22:00 +19°C° 0 mm 1 m/s 748 mmHg 91%
23:00 +19°C° 0 mm 1 m/s 748 mmHg 90%

Amanhã, 16 Junho, Quarta-feira

Tempo Temperatura Precipitação Vento Pressão Humidade
00:00 +19°C° 0 mm 1 m/s 748 mmHg 90%
01:00 +18°C° 0 mm 1 m/s 748 mmHg 90%
02:00 +18°C° 0 mm 1 m/s 748 mmHg 91%
03:00 +18°C° 0 mm 1 m/s 748 mmHg 91%
04:00 +19°C° 0 mm 1 m/s 748 mmHg 90%
05:00 +19°C° 0 mm 1 m/s 748 mmHg 90%
06:00 +20°C° 0 mm 1 m/s 748 mmHg 89%
07:00 +21°C° 0 mm 1 m/s 748 mmHg 82%
08:00 +23°C° 0 mm 2 m/s 748 mmHg 75%
09:00 +25°C° 0 mm 2 m/s 748 mmHg 68%
10:00 +26°C° 0 mm 2 m/s 748 mmHg 64%
11:00 +27°C° 0 mm 3 m/s 748 mmHg 60%
12:00 +28°C° 0 mm 3 m/s 748 mmHg 57%
13:00 +28°C° 0.3 mm 3 m/s 748 mmHg 58%
14:00 +28°C° 0.3 mm 4 m/s 748 mmHg 59%
15:00 +28°C° 0.3 mm 4 m/s 749 mmHg 60%
16:00 +27°C° 0.5 mm 4 m/s 749 mmHg 67%
17:00 +25°C° 0.5 mm 4 m/s 749 mmHg 75%
18:00 +23°C° 0.5 mm 4 m/s 749 mmHg 83%
19:00 +22°C° 0.1 mm 4 m/s 750 mmHg 86%
20:00 +21°C° 0.1 mm 3 m/s 751 mmHg 89%
21:00 +19°C° 0.1 mm 3 m/s 751 mmHg 92%
22:00 +18°C° 0 mm 3 m/s 752 mmHg 93%
23:00 +18°C° 0 mm 3 m/s 752 mmHg 94%

Depois de amanhã, 17 Junho, Quinta-feira

Tempo Temperatura Precipitação Vento Pressão Humidade
00:00 +17°C° 0 mm 3 m/s 752 mmHg 94%
01:00 +16°C° 0 mm 3 m/s 753 mmHg 94%
02:00 +14°C° 0 mm 3 m/s 753 mmHg 94%
03:00 +14°C° 0 mm 3 m/s 754 mmHg 93%
04:00 +14°C° 0 mm 3 m/s 754 mmHg 91%
05:00 +14°C° 0 mm 3 m/s 754 mmHg 89%
06:00 +14°C° 0 mm 3 m/s 755 mmHg 86%
07:00 +17°C° 0 mm 3 m/s 755 mmHg 76%
08:00 +19°C° 0 mm 4 m/s 756 mmHg 65%
09:00 +20°C° 0 mm 4 m/s 756 mmHg 55%
10:00 +21°C° 0 mm 4 m/s 756 mmHg 52%
11:00 +22°C° 0 mm 5 m/s 756 mmHg 48%
12:00 +23°C° 0 mm 5 m/s 757 mmHg 45%
13:00 +23°C° 0 mm 5 m/s 757 mmHg 45%
14:00 +23°C° 0 mm 5 m/s 757 mmHg 46%
15:00 +23°C° 0 mm 5 m/s 757 mmHg 47%
16:00 +22°C° 0 mm 5 m/s 757 mmHg 51%
17:00 +22°C° 0 mm 5 m/s 757 mmHg 55%
18:00 +21°C° 0 mm 4 m/s 758 mmHg 59%
19:00 +19°C° 0 mm 4 m/s 758 mmHg 64%
20:00 +18°C° 0 mm 3 m/s 758 mmHg 70%
21:00 +16°C° 0 mm 2 m/s 758 mmHg 76%
22:00 +15°C° 0 mm 2 m/s 759 mmHg 77%
23:00 +15°C° 0 mm 2 m/s 759 mmHg 78%

18 Junho, Sexta-feira

Tempo Temperatura Precipitação Vento Pressão Humidade
00:00 +14°C° 0 mm 2 m/s 759 mmHg 79%
01:00 +14°C° 0 mm 2 m/s 759 mmHg 80%
02:00 +13°C° 0 mm 2 m/s 760 mmHg 81%
03:00 +13°C° 0 mm 2 m/s 760 mmHg 82%
04:00 +14°C° 0 mm 2 m/s 760 mmHg 80%
05:00 +15°C° 0 mm 2 m/s 761 mmHg 79%
06:00 +15°C° 0 mm 2 m/s 761 mmHg 78%
07:00 +17°C° 0 mm 2 m/s 761 mmHg 72%
08:00 +19°C° 0 mm 2 m/s 761 mmHg 65%
09:00 +21°C° 0 mm 2 m/s 761 mmHg 59%
10:00 +23°C° 0 mm 2 m/s 761 mmHg 56%
11:00 +24°C° 0 mm 2 m/s 761 mmHg 53%
12:00 +25°C° 0 mm 2 m/s 761 mmHg 50%
13:00 +25°C° 0 mm 2 m/s 761 mmHg 50%
14:00 +25°C° 0 mm 2 m/s 761 mmHg 49%
15:00 +26°C° 0 mm 3 m/s 761 mmHg 49%
16:00 +25°C° 0 mm 2 m/s 761 mmHg 53%
17:00 +25°C° 0 mm 2 m/s 761 mmHg 58%
18:00 +25°C° 0 mm 1 m/s 761 mmHg 62%
19:00 +23°C° 0 mm 1 m/s 761 mmHg 68%
20:00 +21°C° 0 mm 1 m/s 761 mmHg 73%
21:00 +19°C° 0 mm 1 m/s 761 mmHg 79%
22:00 +17°C° 0 mm 2 m/s 761 mmHg 81%
23:00 +16°C° 0 mm 2 m/s 762 mmHg 83%

19 Junho, Sábado

Tempo Temperatura Precipitação Vento Pressão Humidade
00:00 +16°C° 0 mm 2 m/s 762 mmHg 85%
01:00 +15°C° 0 mm 2 m/s 762 mmHg 86%
02:00 +15°C° 0 mm 2 m/s 762 mmHg 87%
03:00 +15°C° 0 mm 2 m/s 762 mmHg 88%
04:00 +15°C° 0 mm 2 m/s 762 mmHg 86%
05:00 +16°C° 0 mm 2 m/s 763 mmHg 84%
06:00 +17°C° 0 mm 2 m/s 763 mmHg 82%
07:00 +19°C° 0 mm 2 m/s 763 mmHg 76%
08:00 +21°C° 0 mm 2 m/s 763 mmHg 71%
09:00 +23°C° 0 mm 2 m/s 763 mmHg 66%
10:00 +24°C° 0 mm 2 m/s 762 mmHg 63%
11:00 +25°C° 0 mm 2 m/s 762 mmHg 60%
12:00 +26°C° 0 mm 2 m/s 762 mmHg 57%
13:00 +27°C° 0 mm 3 m/s 762 mmHg 56%
14:00 +27°C° 0 mm 3 m/s 761 mmHg 55%
15:00 +27°C° 0 mm 3 m/s 761 mmHg 54%
16:00 +27°C° 0 mm 3 m/s 761 mmHg 58%
17:00 +27°C° 0 mm 3 m/s 761 mmHg 63%
18:00 +26°C° 0 mm 2 m/s 760 mmHg 67%
19:00 +24°C° 0 mm 2 m/s 760 mmHg 73%
20:00 +23°C° 0 mm 2 m/s 760 mmHg 80%
21:00 +20°C° 0 mm 2 m/s 760 mmHg 87%
22:00 +19°C° 0 mm 2 m/s 761 mmHg 88%
23:00 +19°C° 0 mm 2 m/s 761 mmHg 90%

20 Junho, Domingo

Tempo Temperatura Precipitação Vento Pressão Humidade
00:00 +18°C° 0 mm 2 m/s 761 mmHg 92%
01:00 +18°C° 0 mm 2 m/s 761 mmHg 92%
02:00 +17°C° 0 mm 2 m/s 761 mmHg 93%
03:00 +17°C° 0 mm 2 m/s 761 mmHg 93%
04:00 +18°C° 0 mm 2 m/s 761 mmHg 91%
05:00 +20°C° 0 mm 1 m/s 761 mmHg 88%
06:00 +20°C° 0 mm 1 m/s 761 mmHg 86%
07:00 +22°C° 0 mm 1 m/s 761 mmHg 79%
08:00 +24°C° 0 mm 1 m/s 761 mmHg 73%
09:00 +25°C° 0 mm 1 m/s 761 mmHg 67%
10:00 +27°C° 0 mm 1 m/s 760 mmHg 63%
11:00 +28°C° 0 mm 1 m/s 760 mmHg 60%
12:00 +29°C° 0 mm 1 m/s 760 mmHg 56%
13:00 +29°C° 0 mm 1 m/s 760 mmHg 55%
14:00 +29°C° 0 mm 1 m/s 759 mmHg 54%
15:00 +30°C° 0 mm 1 m/s 759 mmHg 52%
16:00 +29°C° 0 mm 1 m/s 759 mmHg 57%
17:00 +28°C° 0 mm 1 m/s 759 mmHg 62%
18:00 +28°C° 0 mm 1 m/s 759 mmHg 67%
19:00 +26°C° 0 mm 1 m/s 759 mmHg 70%
20:00 +25°C° 0 mm 1 m/s 759 mmHg 74%
21:00 +24°C° 0 mm 1 m/s 759 mmHg 77%
22:00 +21°C° 0 mm 0 m/s 759 mmHg 78%
23:00 +21°C° 0 mm 0 m/s 759 mmHg 79%
Mostrar mais